Anniston, AL

12:28 PM CDT on August 18, 2017 (GMT -0500)
Anniston Metro

Weather History for KANB - September, 2013

Change the Weather History Date:

Tuesday, September 10, 2013

  Actual Average Record
Temperature  
Mean Temperature 81 °F 76 °F  
Max Temperature 90 °F 86 °F 99 °F (1954)
Min Temperature 72 °F 65 °F 40 °F (1903)
Degree Days  
Heating Degree Days 0    
Month to date heating degree days 0  
Since 1 July heating degree days 0  
Cooling Degree Days 16    
Growing Degree Days 30 (Base 50)    
Moisture  
Dew Point 69 °F    
Average Humidity 72    
Maximum Humidity 93    
Minimum Humidity 50    
Precipitation  
Precipitation 0.00 in 0.11 in 1.40 in (1989)
Month to date precipitation 1.75 1.01  
Year to date precipitation 59.53 35.93  
Sea Level Pressure  
Sea Level Pressure 30.14 in    
Wind  
Wind Speed 4 mph (East)    
Max Wind Speed 10 mph    
Max Gust Speed 13 mph    
Visibility 8 miles    
Events      
T = Trace of Precipitation, MM = Missing Value Source: NWS Daily Summary

Daily Weather History Graph

Daily Weather History Graph

Search for Another Location

Airport or City:

Trip Planner

Search our weather history database for the weather conditions in past years. The results will help you decide how hot, cold, wet, or windy it might be!

Date:

Astronomy

Sep. 10, 2013 Rise Set
Actual Time 6:23 AM CDT 6:56 PM CDT
Civil Twilight 5:58 AM CDT 7:21 PM CDT
Nautical Twilight 5:29 AM CDT 7:50 PM CDT
Astronomical Twilight 4:59 AM CDT 8:20 PM CDT
Moon 11:31 AM CDT (9/10) 10:16 PM CDT (9/10)
Length of Visible Light 13h 22m
Length of Day
12h 32m
Waxing Crescent, 28% of the Moon is Illuminated
Sep 10
Waxing Crescent
Sep 12
First Quarter
Sep 19
Full
Sep 26
Last Quarter
Oct 4
New

Hourly Weather History & Observations

Time (CDT) Temp. Heat Index Dew Point Humidity Pressure Visibility Wind Dir Wind Speed Gust Speed Precip Events Conditions
12:53 AM 75.0 °F - 71.1 °F 87% 30.09 in 6.0 mi Calm Calm - N/A   Clear
1:53 AM 75.9 °F - 69.1 °F 79% 30.09 in 8.0 mi ENE 6.9 mph - N/A   Clear
2:53 AM 73.0 °F - 70.0 °F 90% 30.09 in 7.0 mi ENE 5.8 mph - N/A   Clear
3:53 AM 73.0 °F - 70.0 °F 90% 30.10 in 6.0 mi Calm Calm - N/A   Clear
4:53 AM 73.0 °F - 69.1 °F 87% 30.11 in 7.0 mi ENE 6.9 mph - N/A   Clear
5:53 AM 73.0 °F - 68.0 °F 84% 30.12 in 8.0 mi NE 4.6 mph - N/A   Clear
6:53 AM 73.0 °F - 68.0 °F 84% 30.15 in 6.0 mi NE 6.9 mph - N/A   Haze
7:53 AM 73.9 °F - 69.1 °F 85% 30.17 in 6.0 mi NE 8.1 mph - N/A   Haze
8:53 AM 77.0 °F - 70.0 °F 79% 30.18 in 7.0 mi ENE 3.5 mph - N/A   Clear
9:53 AM 82.0 °F 85.9 °F 70.0 °F 67% 30.18 in 10.0 mi North 5.8 mph - N/A   Clear
10:53 AM 84.9 °F 88.8 °F 69.1 °F 59% 30.18 in 10.0 mi ESE 5.8 mph - N/A   Clear
11:53 AM 86.0 °F 90.1 °F 69.1 °F 57% 30.17 in 10.0 mi ESE 4.6 mph - N/A   Partly Cloudy
12:53 PM 87.1 °F 90.6 °F 68.0 °F 53% 30.17 in 10.0 mi Calm Calm - N/A   Partly Cloudy
1:53 PM 88.0 °F 90.7 °F 66.9 °F 49% 30.14 in 9.0 mi Variable 3.5 mph - N/A   Clear
2:53 PM 88.0 °F 90.3 °F 66.0 °F 48% 30.12 in 10.0 mi SSE 3.5 mph - N/A   Partly Cloudy
3:53 PM 88.0 °F 90.7 °F 66.9 °F 49% 30.10 in 10.0 mi ESE 4.6 mph - N/A   Clear
4:53 PM 87.1 °F 90.6 °F 68.0 °F 53% 30.11 in 10.0 mi SSE 4.6 mph - N/A   Clear
5:53 PM 86.0 °F 90.7 °F 70.0 °F 59% 30.12 in 10.0 mi East 3.5 mph - N/A   Mostly Cloudy
6:53 PM 82.9 °F 87.5 °F 71.1 °F 67% 30.12 in 10.0 mi Calm Calm - N/A   Scattered Clouds
7:53 PM 79.0 °F - 71.1 °F 77% 30.14 in 9.0 mi Calm Calm - N/A   Clear
8:53 PM 78.1 °F - 71.1 °F 79% 30.17 in 9.0 mi ENE 3.5 mph - N/A   Clear
9:53 PM 75.0 °F - 71.1 °F 87% 30.18 in 7.0 mi Calm Calm - N/A   Clear
10:53 PM 73.9 °F - 71.1 °F 91% 30.17 in 6.0 mi Calm Calm - N/A   Clear
11:53 PM 73.9 °F - 70.0 °F 87% 30.17 in 6.0 mi Calm Calm - N/A   Clear